contact:dominique.lefevre@mio.osupytheas.fr, maurice.libes@osupytheas.fr, didier.mallarino@osupytheas.fr
Project:EMSO http://www.emso-fr.org/EMSO-France
Depth: 2436.0 m
Title:EMSO Ligure Ouest : Data MII capteur AQUADOPP
Date,Latitude,Longitude,X_East,Y_North,Z_Up,Amplitude_X,Amplitude_Y,Amplitude_Z,Batterie,SoundSpeed,Heading,Pitch,Roll,Pressure,TIS,Speed,Direction
, degrees North, degrees East, m.s-1, m.s-1,m.s-1, 1, 1, 1, Volt, m.s-1, degree, degree, degree, dbar, degree_C, m.s-1, degree
2019-06-21T00:09:03,42.805,6.029,-0.017,-0.002,-0.039,100.0,104.0,97.0,13.4,1505.2,324.8,-0.7,1.8,2470.261,13.29,0.017,263.3
2019-06-21T00:12:04,42.805,6.029,-0.032,0.002,-0.05,100.0,106.0,99.0,13.4,1505.3,327.8,-0.8,1.8,2470.215,13.31,0.032,273.6
2019-06-21T00:15:05,42.805,6.029,0.004,0.005,-0.014,101.0,107.0,99.0,13.4,1505.3,323.5,-0.8,1.8,2470.219,13.32,0.006,38.7
2019-06-21T00:18:06,42.805,6.029,0.0,0.004,-0.034,101.0,105.0,97.0,13.3,1505.3,326.0,-0.7,1.8,2470.222,13.32,0.004,0.0
2019-06-21T00:21:07,42.805,6.029,0.013,-0.006,0.009,100.0,107.0,96.0,13.3,1505.3,325.2,-0.7,1.8,2470.188,13.32,0.014,114.8
2019-06-21T00:24:08,42.805,6.029,0.013,0.001,-0.016,98.0,104.0,98.0,13.3,1505.3,324.8,-0.8,1.8,2470.193,13.33,0.013,85.6
2019-06-21T00:27:09,42.805,6.029,-0.015,0.02,-0.047,100.0,105.0,97.0,13.4,1505.3,326.1,-0.7,1.9,2470.198,13.33,0.025,323.1
2019-06-21T00:30:10,42.805,6.029,0.011,0.01,-0.013,100.0,106.0,97.0,13.4,1505.3,327.0,-0.7,1.8,2470.17,13.33,0.014,47.7
2019-06-21T00:33:11,42.805,6.029,-0.016,0.005,-0.049,99.0,105.0,99.0,13.3,1505.3,328.2,-0.8,1.9,2470.221,13.33,0.016,287.4
2019-06-21T00:36:12,42.805,6.029,0.004,-0.016,-0.034,101.0,105.0,99.0,13.4,1505.3,323.6,-0.7,1.9,2470.177,13.33,0.016,166.0
2019-06-21T00:39:13,42.805,6.029,-0.032,0.002,-0.042,100.0,105.0,97.0,13.3,1505.3,326.5,-0.8,1.9,2470.169,13.33,0.032,273.6
2019-06-21T00:42:14,42.805,6.029,0.007,0.016,-0.033,100.0,105.0,98.0,13.4,1505.3,325.9,-0.7,1.9,2470.154,13.33,0.017,23.6
2019-06-21T00:45:15,42.805,6.029,0.014,0.002,-0.035,99.0,105.0,99.0,13.4,1505.3,324.6,-0.7,1.9,2470.162,13.33,0.014,81.9
2019-06-21T00:48:16,42.805,6.029,-0.009,0.002,-0.012,100.0,106.0,96.0,13.3,1505.3,327.2,-0.7,1.9,2470.174,13.33,0.009,282.5
2019-06-21T00:51:17,42.805,6.029,0.024,0.017,-0.001,101.0,105.0,97.0,13.4,1505.3,324.0,-0.7,1.9,2470.157,13.33,0.029,54.7
2019-06-21T00:54:18,42.805,6.029,0.001,0.011,-0.01,101.0,104.0,98.0,13.4,1505.3,326.8,-0.7,1.8,2470.101,13.33,0.011,5.2
2019-06-21T00:57:19,42.805,6.029,0.031,-0.012,-0.04,100.0,108.0,97.0,13.4,1505.3,325.4,-0.7,1.9,2470.157,13.33,0.033,111.2
2019-06-21T01:00:20,42.805,6.029,-0.004,-0.005,-0.036,100.0,105.0,98.0,13.4,1505.3,324.5,-0.7,1.8,2470.167,13.33,0.006,218.7
2019-06-21T01:03:21,42.805,6.029,0.007,0.012,-0.039,100.0,104.0,96.0,13.4,1505.3,323.5,-0.7,1.8,2470.175,13.33,0.013,30.3
2019-06-21T01:06:22,42.805,6.029,-0.05,0.003,-0.07,102.0,105.0,98.0,13.3,1505.3,322.9,-0.7,1.8,2470.152,13.33,0.05,273.4
2019-06-21T01:09:23,42.805,6.029,0.035,0.021,0.013,99.0,107.0,98.0,13.4,1505.3,323.9,-0.7,1.9,2470.173,13.33,0.04,59.0
2019-06-21T01:12:24,42.805,6.029,0.002,0.02,0.011,101.0,107.0,96.0,13.4,1505.3,323.5,-0.7,1.9,2470.188,13.33,0.02,5.7
2019-06-21T01:15:25,42.805,6.029,0.012,0.008,0.0,99.0,105.0,98.0,13.4,1505.3,323.2,-0.7,1.8,2470.121,13.33,0.014,56.3
2019-06-21T01:18:26,42.805,6.029,0.0,0.002,-0.024,99.0,105.0,98.0,13.3,1505.3,325.7,-0.7,1.8,2470.129,13.33,0.002,0.0
2019-06-21T01:21:27,42.805,6.029,0.016,-0.01,0.031,99.0,106.0,97.0,13.4,1505.3,325.2,-0.7,1.8,2470.135,13.33,0.018,122.0
2019-06-21T01:24:28,42.805,6.029,0.01,0.001,-0.005,100.0,104.0,98.0,13.4,1505.3,324.1,-0.7,1.8,2470.122,13.33,0.01,84.3
2019-06-21T01:27:29,42.805,6.029,0.032,0.005,0.024,101.0,107.0,97.0,13.4,1505.3,327.8,-0.7,1.8,2470.103,13.33,0.032,81.1
2019-06-21T01:30:30,42.805,6.029,0.0,-0.014,-0.006,100.0,106.0,97.0,13.3,1505.3,325.8,-0.7,1.8,2470.122,13.33,0.014,180.0
2019-06-21T01:33:31,42.805,6.029,0.039,0.008,-0.009,100.0,104.0,99.0,13.4,1505.3,327.5,-0.7,1.8,2470.125,13.33,0.039,78.4
2019-06-21T01:36:32,42.805,6.029,0.008,0.012,-0.016,100.0,104.0,98.0,13.4,1505.3,326.3,-0.8,1.9,2470.166,13.33,0.014,33.7
2019-06-21T01:39:33,42.805,6.029,0.031,-0.002,-0.019,103.0,109.0,97.0,13.3,1505.3,327.2,-0.7,1.8,2470.144,13.33,0.031,93.7
2019-06-21T01:42:34,42.805,6.029,-0.02,-0.003,-0.057,102.0,102.0,98.0,13.3,1505.3,326.2,-0.7,1.9,2470.12,13.33,0.02,261.5
2019-06-21T01:45:35,42.805,6.029,-0.022,0.015,-0.044,101.0,105.0,98.0,13.4,1505.4,326.9,-0.7,1.8,2470.118,13.34,0.026,304.3
2019-06-21T01:48:36,42.805,6.029,-0.026,0.026,-0.042,101.0,103.0,97.0,13.4,1505.4,327.2,-0.8,1.8,2470.135,13.34,0.036,315.0
2019-06-21T01:51:37,42.805,6.029,-0.035,0.003,-0.047,100.0,105.0,97.0,13.3,1505.4,323.5,-0.7,1.8,2470.098,13.34,0.035,274.9
2019-06-21T01:54:38,42.805,6.029,-0.063,-0.014,-0.058,101.0,107.0,97.0,13.3,1505.4,326.0,-0.7,1.8,2470.156,13.34,0.064,257.5
2019-06-21T01:57:39,42.805,6.029,-0.027,0.012,-0.05,102.0,104.0,99.0,13.4,1505.4,324.1,-0.7,1.8,2470.088,13.34,0.029,294.0
2019-06-21T02:00:40,42.805,6.029,-0.04,0.003,-0.062,100.0,105.0,98.0,13.4,1505.4,324.9,-0.7,1.9,2470.066,13.34,0.04,274.3
2019-06-21T02:03:41,42.805,6.029,-0.038,0.0,-0.059,100.0,106.0,98.0,13.3,1505.4,322.8,-0.7,1.8,2470.085,13.34,0.038,270.0
2019-06-21T02:06:42,42.805,6.029,0.0,0.013,-0.021,99.0,105.0,97.0,13.4,1505.4,325.2,-0.7,1.8,2470.118,13.34,0.013,0.0
2019-06-21T02:09:43,42.805,6.029,-0.008,0.004,-0.004,99.0,106.0,97.0,13.4,1505.4,328.4,-0.7,1.8,2470.154,13.34,0.008,296.6
2019-06-21T02:12:44,42.805,6.029,-0.002,0.01,0.005,101.0,108.0,98.0,13.3,1505.4,326.9,-0.7,1.8,2470.068,13.34,0.01,348.7
2019-06-21T02:15:45,42.805,6.029,-0.032,-0.018,-0.05,102.0,105.0,97.0,13.3,1505.4,327.8,-0.7,1.8,2470.091,13.34,0.036,240.6
2019-06-21T02:18:46,42.805,6.029,-0.005,0.016,0.01,100.0,105.0,97.0,13.4,1505.4,323.3,-0.8,1.8,2470.131,13.34,0.016,342.6
2019-06-21T02:21:47,42.805,6.029,0.002,0.008,0.01,101.0,107.0,97.0,13.4,1505.4,325.0,-0.7,1.8,2470.125,13.34,0.008,14.0
2019-06-21T02:24:48,42.805,6.029,-0.007,-0.002,-0.015,102.0,107.0,98.0,13.4,1505.4,326.9,-0.7,1.8,2470.141,13.34,0.007,254.1
2019-06-21T02:27:49,42.805,6.029,0.001,0.009,-0.009,103.0,105.0,98.0,13.4,1505.4,326.3,-0.7,1.8,2470.06,13.34,0.009,6.3
2019-06-21T02:30:50,42.805,6.029,0.035,0.013,0.004,101.0,105.0,97.0,13.4,1505.4,326.8,-0.7,1.8,2470.082,13.34,0.037,69.6
2019-06-21T02:33:51,42.805,6.029,0.027,0.012,-0.001,101.0,107.0,101.0,13.3,1505.4,327.4,-0.8,1.9,2470.094,13.34,0.029,66.0
2019-06-21T02:36:52,42.805,6.029,0.025,0.016,0.001,101.0,107.0,96.0,13.4,1505.4,325.2,-0.7,1.8,2470.117,13.34,0.029,57.4
2019-06-21T02:39:53,42.805,6.029,0.019,0.007,-0.015,102.0,107.0,96.0,13.4,1505.4,325.9,-0.7,1.9,2470.059,13.34,0.02,69.8
2019-06-21T02:42:54,42.805,6.029,0.002,0.024,0.003,99.0,104.0,97.0,13.4,1505.4,327.5,-0.8,1.8,2470.067,13.34,0.024,4.8
2019-06-21T02:45:55,42.805,6.029,0.017,0.003,-0.034,103.0,105.0,100.0,13.3,1505.4,324.6,-0.7,1.9,2470.064,13.34,0.017,80.0
2019-06-21T02:48:56,42.805,6.029,0.012,0.003,-0.014,101.0,106.0,99.0,13.4,1505.4,323.7,-0.7,1.8,2470.075,13.34,0.012,76.0
2019-06-21T02:51:57,42.805,6.029,0.014,-0.002,-0.011,101.0,104.0,97.0,13.4,1505.4,325.6,-0.7,1.8,2470.035,13.34,0.014,98.1
2019-06-21T02:54:58,42.805,6.029,0.022,0.0,0.006,101.0,105.0,99.0,13.4,1505.4,328.4,-0.7,1.8,2470.1,13.34,0.022,90.0
2019-06-21T02:57:59,42.805,6.029,0.024,0.015,0.0,103.0,105.0,97.0,13.4,1505.4,323.5,-0.7,1.8,2470.067,13.34,0.028,58.0
2019-06-21T03:01:00,42.805,6.029,0.02,0.021,0.005,100.0,105.0,101.0,13.4,1505.4,324.7,-0.7,1.8,2470.067,13.34,0.028,43.6
2019-06-21T03:04:01,42.805,6.029,0.049,-0.007,0.008,99.0,105.0,97.0,13.4,1505.4,324.3,-0.7,1.8,2470.048,13.34,0.049,98.1
2019-06-21T03:07:02,42.805,6.029,0.005,-0.004,-0.032,100.0,103.0,98.0,13.4,1505.4,325.2,-0.7,1.8,2470.068,13.34,0.006,128.7
2019-06-21T03:10:03,42.805,6.029,0.021,0.008,0.001,101.0,103.0,98.0,13.3,1505.4,327.0,-0.7,1.8,2470.088,13.34,0.022,69.1
2019-06-21T03:13:04,42.805,6.029,0.005,0.003,-0.012,100.0,106.0,98.0,13.4,1505.4,324.6,-0.7,1.8,2470.092,13.34,0.005,59.0
2019-06-21T03:16:05,42.805,6.029,0.021,0.004,0.026,101.0,106.0,98.0,13.4,1505.4,327.7,-0.7,1.8,2470.079,13.34,0.021,79.2
2019-06-21T03:19:06,42.805,6.029,-0.002,0.015,-0.027,98.0,106.0,97.0,13.4,1505.4,323.3,-0.7,1.8,2470.071,13.34,0.015,352.4
2019-06-21T03:22:07,42.805,6.029,0.002,-0.008,-0.024,99.0,107.0,97.0,13.3,1505.4,324.6,-0.7,1.8,2470.078,13.34,0.008,166.0
2019-06-21T03:25:08,42.805,6.029,0.008,0.0,-0.007,99.0,107.0,98.0,13.4,1505.4,326.4,-0.7,1.8,2470.071,13.34,0.008,90.0
2019-06-21T03:28:09,42.805,6.029,-0.011,0.013,-0.06,99.0,106.0,99.0,13.4,1505.4,325.3,-0.7,1.9,2470.043,13.34,0.017,319.8
2019-06-21T03:31:10,42.805,6.029,0.005,-0.005,-0.02,99.0,107.0,97.0,13.3,1505.4,328.4,-0.7,1.9,2470.088,13.34,0.007,135.0
2019-06-21T03:34:11,42.805,6.029,0.023,0.015,0.003,101.0,106.0,97.0,13.4,1505.4,326.2,-0.7,1.8,2470.052,13.34,0.027,56.9
2019-06-21T03:37:12,42.805,6.029,-0.012,0.003,-0.025,101.0,106.0,96.0,13.4,1505.4,324.3,-0.8,1.8,2470.04,13.34,0.012,284.0
2019-06-21T03:40:13,42.805,6.029,0.008,-0.002,-0.001,100.0,106.0,98.0,13.4,1505.4,323.2,-0.8,1.9,2470.052,13.35,0.008,104.0
2019-06-21T03:43:14,42.805,6.029,-0.003,0.018,-0.017,100.0,106.0,97.0,13.4,1505.4,326.4,-0.7,1.9,2470.092,13.35,0.018,350.5
2019-06-21T03:46:15,42.805,6.029,0.005,-0.015,-0.008,99.0,105.0,98.0,13.4,1505.4,324.2,-0.7,1.8,2470.012,13.35,0.015,161.6
2019-06-21T03:49:16,42.805,6.029,-0.021,-0.001,-0.029,99.0,107.0,97.0,13.4,1505.4,326.5,-0.7,1.8,2470.04,13.35,0.021,267.3
2019-06-21T03:52:17,42.805,6.029,-0.009,0.0,-0.035,101.0,107.0,98.0,13.3,1505.4,324.1,-0.7,1.8,2470.059,13.35,0.009,270.0
2019-06-21T03:55:18,42.805,6.029,-0.02,0.013,-0.014,100.0,107.0,95.0,13.4,1505.4,325.8,-0.8,1.9,2470.07,13.35,0.023,303.0
2019-06-21T03:58:19,42.805,6.029,-0.021,0.004,-0.038,99.0,109.0,98.0,13.4,1505.4,325.3,-0.7,1.8,2470.044,13.35,0.021,280.8
2019-06-21T04:01:20,42.805,6.029,-0.031,0.006,-0.024,99.0,105.0,99.0,13.4,1505.4,327.9,-0.7,1.9,2470.041,13.35,0.031,281.0
2019-06-21T04:04:21,42.805,6.029,0.006,-0.015,-0.033,102.0,107.0,97.0,13.4,1505.4,323.5,-0.7,1.8,2470.026,13.35,0.016,158.2
2019-06-21T04:07:22,42.805,6.029,-0.034,0.012,-0.037,100.0,106.0,98.0,13.4,1505.4,326.7,-0.7,1.9,2470.026,13.35,0.036,289.4
2019-06-21T04:10:23,42.805,6.029,-0.016,0.002,-0.026,98.0,104.0,98.0,13.3,1505.4,326.7,-0.7,1.9,2470.066,13.35,0.016,277.1
2019-06-21T04:13:24,42.805,6.029,-0.044,-0.005,-0.061,100.0,105.0,97.0,13.4,1505.4,325.4,-0.7,1.9,2470.035,13.35,0.044,263.5
2019-06-21T04:16:25,42.805,6.029,-0.005,-0.03,-0.046,100.0,107.0,104.0,13.4,1505.4,323.4,-0.8,1.8,2470.025,13.35,0.03,189.5
2019-06-21T04:19:26,42.805,6.029,-0.007,0.006,-0.033,99.0,105.0,97.0,13.3,1505.4,323.3,-0.7,1.8,2470.04,13.35,0.009,310.6
2019-06-21T04:22:27,42.805,6.029,-0.032,0.006,-0.054,98.0,104.0,97.0,13.3,1505.4,326.9,-0.7,1.8,2470.046,13.35,0.032,280.6
2019-06-21T04:25:28,42.805,6.029,-0.025,0.009,-0.045,100.0,107.0,98.0,13.4,1505.4,326.9,-0.7,1.8,2470.032,13.35,0.026,289.8
2019-06-21T04:28:29,42.805,6.029,-0.002,0.002,-0.054,100.0,106.0,97.0,13.3,1505.4,324.8,-0.7,1.8,2470.059,13.35,0.002,315.0
2019-06-21T04:31:30,42.805,6.029,-0.037,0.002,-0.034,99.0,104.0,97.0,13.3,1505.4,324.8,-0.8,1.8,2470.039,13.35,0.037,273.1
2019-06-21T04:34:31,42.805,6.029,-0.005,-0.001,-0.008,98.0,106.0,98.0,13.4,1505.4,327.2,-0.7,1.8,2470.024,13.35,0.005,258.7
2019-06-21T04:37:32,42.805,6.029,-0.006,0.0,-0.01,100.0,106.0,98.0,13.4,1505.4,324.7,-0.8,1.8,2470.036,13.35,0.006,270.0
2019-06-21T04:40:33,42.805,6.029,0.007,0.008,-0.007,100.0,106.0,97.0,13.4,1505.4,326.6,-0.8,1.8,2470.067,13.35,0.01,41.2
2019-06-21T04:43:34,42.805,6.029,-0.011,-0.002,-0.013,99.0,107.0,100.0,13.3,1505.4,325.5,-0.8,1.8,2470.03,13.35,0.011,259.7
2019-06-21T04:46:35,42.805,6.029,-0.034,0.019,-0.031,99.0,107.0,96.0,13.3,1505.4,326.9,-0.7,1.8,2470.054,13.35,0.038,299.2
2019-06-21T04:49:36,42.805,6.029,-0.049,-0.01,-0.027,101.0,107.0,96.0,13.4,1505.4,328.1,-0.7,1.8,2470.054,13.35,0.05,258.5
2019-06-21T04:52:37,42.805,6.029,-0.032,0.006,-0.042,102.0,104.0,96.0,13.4,1505.4,326.0,-0.7,1.8,2470.019,13.35,0.032,280.6
2019-06-21T04:55:38,42.805,6.029,-0.007,0.019,-0.024,97.0,106.0,95.0,13.3,1505.4,323.1,-0.7,1.8,2470.075,13.35,0.02,339.8
2019-06-21T04:58:39,42.805,6.029,0.023,0.026,0.002,99.0,105.0,96.0,13.4,1505.4,324.5,-0.8,1.8,2470.052,13.35,0.034,41.5
2019-06-21T05:01:40,42.805,6.029,-0.013,0.022,0.002,100.0,106.0,98.0,13.4,1505.4,325.2,-0.7,1.8,2470.067,13.35,0.025,329.4
2019-06-21T05:04:41,42.805,6.029,-0.032,0.008,-0.036,103.0,106.0,96.0,13.4,1505.4,325.1,-0.7,1.8,2470.019,13.35,0.032,284.0
2019-06-21T05:07:42,42.805,6.029,-0.014,0.001,-0.024,98.0,104.0,97.0,13.4,1505.4,327.2,-0.8,1.8,2470.031,13.35,0.014,274.1
2019-06-21T05:10:43,42.805,6.029,0.0,0.018,-0.022,98.0,108.0,97.0,13.4,1505.4,323.6,-0.7,1.8,2470.107,13.35,0.018,0.0
2019-06-21T05:13:44,42.805,6.029,0.0,0.002,-0.008,100.0,105.0,96.0,13.4,1505.4,323.9,-0.7,1.9,2470.05,13.35,0.002,0.0
2019-06-21T05:16:45,42.805,6.029,-0.028,0.0,-0.044,98.0,105.0,97.0,13.4,1505.4,326.8,-0.7,1.8,2470.028,13.35,0.028,270.0
2019-06-21T05:19:46,42.805,6.029,-0.012,0.025,-0.036,98.0,105.0,95.0,13.4,1505.4,326.2,-0.7,1.9,2470.058,13.35,0.027,334.4
2019-06-21T05:22:47,42.805,6.029,-0.029,0.013,-0.063,99.0,106.0,98.0,13.4,1505.4,324.0,-0.7,1.8,2470.09,13.35,0.031,294.1
2019-06-21T05:25:48,42.805,6.029,-0.017,0.005,-0.051,101.0,108.0,94.0,13.3,1505.4,326.0,-0.7,1.9,2470.07,13.35,0.017,286.4
2019-06-21T05:28:49,42.805,6.029,-0.027,-0.009,-0.009,99.0,106.0,98.0,13.4,1505.4,324.0,-0.7,1.8,2470.084,13.35,0.028,251.6
2019-06-21T05:31:50,42.805,6.029,-0.005,0.008,-0.022,100.0,105.0,97.0,13.4,1505.4,327.7,-0.8,1.8,2470.05,13.35,0.009,328.0
2019-06-21T05:34:51,42.805,6.029,-0.031,0.012,-0.051,100.0,106.0,98.0,13.4,1505.4,327.1,-0.8,1.9,2470.026,13.35,0.033,291.2
2019-06-21T05:37:52,42.805,6.029,-0.048,0.021,-0.026,99.0,105.0,99.0,13.3,1505.4,325.5,-0.7,1.8,2470.065,13.35,0.052,293.6
2019-06-21T05:40:53,42.805,6.029,-0.045,-0.002,-0.053,99.0,107.0,97.0,13.4,1505.4,325.1,-0.7,1.9,2470.061,13.35,0.045,267.5
2019-06-21T05:43:54,42.805,6.029,0.001,0.028,-0.056,100.0,106.0,97.0,13.4,1505.4,323.3,-0.7,1.9,2470.06,13.35,0.028,2.0
2019-06-21T05:46:55,42.805,6.029,-0.028,0.011,-0.025,99.0,106.0,96.0,13.4,1505.4,325.1,-0.7,1.8,2470.063,13.35,0.03,291.4
2019-06-21T05:49:56,42.805,6.029,-0.011,0.016,-0.037,100.0,106.0,97.0,13.4,1505.4,327.6,-0.7,1.8,2470.081,13.35,0.019,325.5
2019-06-21T05:52:57,42.805,6.029,0.0,0.011,-0.011,99.0,106.0,96.0,13.3,1505.4,326.3,-0.7,1.8,2470.043,13.35,0.011,0.0
2019-06-21T05:55:58,42.805,6.029,-0.016,0.008,0.003,102.0,105.0,97.0,13.4,1505.4,323.8,-0.7,1.9,2470.043,13.35,0.017,296.6
2019-06-21T05:58:59,42.805,6.029,0.002,-0.012,-0.023,97.0,108.0,97.0,13.4,1505.4,325.3,-0.7,1.8,2470.075,13.35,0.012,170.5
2019-06-21T06:02:00,42.805,6.029,-0.029,0.007,-0.011,99.0,106.0,97.0,13.3,1505.4,327.6,-0.7,1.9,2470.022,13.35,0.029,283.6
2019-06-21T06:05:01,42.805,6.029,-0.001,0.015,-0.009,103.0,107.0,98.0,13.4,1505.4,327.5,-0.8,1.9,2470.052,13.35,0.015,356.2
2019-06-21T06:08:02,42.805,6.029,-0.014,0.014,-0.021,100.0,107.0,97.0,13.4,1505.4,326.4,-0.7,1.8,2470.072,13.35,0.019,315.0
2019-06-21T06:11:03,42.805,6.029,0.011,0.017,-0.001,100.0,107.0,97.0,13.3,1505.4,325.8,-0.7,1.9,2470.066,13.35,0.02,32.9
2019-06-21T06:14:04,42.805,6.029,0.018,0.005,0.0,97.0,108.0,97.0,13.3,1505.4,327.8,-0.7,1.9,2470.082,13.35,0.018,74.5
2019-06-21T06:17:05,42.805,6.029,0.015,-0.002,-0.004,98.0,107.0,99.0,13.4,1505.4,328.1,-0.7,1.8,2470.075,13.35,0.015,97.6
2019-06-21T06:20:06,42.805,6.029,0.007,0.002,-0.009,101.0,107.0,98.0,13.3,1505.4,323.0,-0.7,1.8,2470.066,13.35,0.007,74.1
2019-06-21T06:23:07,42.805,6.029,0.0,0.016,0.007,101.0,107.0,100.0,13.3,1505.4,326.6,-0.7,1.8,2470.062,13.35,0.016,0.0
2019-06-21T06:26:08,42.805,6.029,0.021,0.011,-0.001,100.0,108.0,98.0,13.4,1505.4,325.5,-0.7,1.8,2470.092,13.35,0.023,62.4
2019-06-21T06:29:09,42.805,6.029,0.025,0.018,0.024,100.0,107.0,97.0,13.3,1505.4,324.7,-0.7,1.8,2470.058,13.35,0.03,54.2
2019-06-21T06:32:10,42.805,6.029,-0.045,0.01,-0.025,100.0,108.0,96.0,13.4,1505.4,326.3,-0.7,1.8,2470.086,13.35,0.046,282.5
2019-06-21T06:35:11,42.805,6.029,-0.017,0.018,-0.055,101.0,106.0,96.0,13.4,1505.4,324.5,-0.7,1.8,2470.077,13.35,0.024,316.6
2019-06-21T06:38:12,42.805,6.029,-0.007,0.038,0.0,100.0,107.0,97.0,13.3,1505.4,327.0,-0.7,1.8,2470.041,13.35,0.038,349.6
2019-06-21T06:41:13,42.805,6.029,-0.024,0.0,-0.023,100.0,107.0,99.0,13.3,1505.4,327.8,-0.7,1.9,2470.083,13.35,0.024,270.0
2019-06-21T06:44:14,42.805,6.029,-0.014,0.009,-0.022,100.0,107.0,99.0,13.3,1505.4,322.8,-0.7,1.8,2470.052,13.35,0.016,302.7
2019-06-21T06:47:15,42.805,6.029,-0.02,0.017,-0.029,100.0,107.0,98.0,13.4,1505.4,324.0,-0.7,1.8,2470.062,13.35,0.026,310.4
2019-06-21T06:50:16,42.805,6.029,-0.015,0.008,-0.026,102.0,106.0,97.0,13.4,1505.4,326.7,-0.7,1.8,2470.042,13.35,0.017,298.1
2019-06-21T06:53:17,42.805,6.029,-0.032,0.006,-0.082,99.0,107.0,97.0,13.4,1505.4,325.4,-0.8,1.8,2470.106,13.35,0.032,280.6
2019-06-21T06:56:18,42.805,6.029,-0.026,-0.008,-0.017,100.0,105.0,98.0,13.4,1505.4,324.6,-0.8,1.8,2470.054,13.35,0.027,252.9
2019-06-21T06:59:19,42.805,6.029,-0.015,0.003,-0.02,100.0,106.0,98.0,13.3,1505.4,326.2,-0.7,1.8,2470.06,13.35,0.015,281.3
2019-06-21T07:02:20,42.805,6.029,-0.026,0.004,-0.028,103.0,107.0,97.0,13.4,1505.4,326.2,-0.7,1.8,2470.075,13.35,0.026,278.7
2019-06-21T07:05:21,42.805,6.029,-0.002,-0.009,-0.021,99.0,107.0,98.0,13.3,1505.4,327.0,-0.7,1.8,2470.07,13.35,0.009,192.5
2019-06-21T07:08:22,42.805,6.029,-0.01,0.016,-0.006,101.0,107.0,100.0,13.3,1505.4,323.5,-0.7,1.9,2470.069,13.35,0.018,328.0
2019-06-21T07:11:23,42.805,6.029,-0.02,0.011,-0.02,100.0,108.0,99.0,13.3,1505.4,326.0,-0.7,1.8,2470.079,13.35,0.022,298.8
2019-06-21T07:14:24,42.805,6.029,-0.009,0.004,-0.015,102.0,107.0,97.0,13.3,1505.4,324.9,-0.8,1.8,2470.07,13.35,0.009,294.0
2019-06-21T07:17:25,42.805,6.029,-0.008,0.016,0.014,100.0,107.0,97.0,13.4,1505.4,327.8,-0.7,1.9,2470.071,13.35,0.017,333.4
2019-06-21T07:20:26,42.805,6.029,-0.019,0.016,-0.037,102.0,106.0,96.0,13.4,1505.4,326.7,-0.7,1.8,2470.071,13.35,0.024,310.1
2019-06-21T07:23:27,42.805,6.029,0.028,0.001,-0.004,102.0,107.0,97.0,13.3,1505.4,325.9,-0.7,1.8,2470.068,13.35,0.028,88.0
2019-06-21T07:26:28,42.805,6.029,-0.003,0.017,0.02,101.0,105.0,96.0,13.4,1505.4,326.1,-0.7,1.9,2470.109,13.35,0.017,350.0
2019-06-21T07:29:29,42.805,6.029,-0.001,0.015,-0.013,100.0,108.0,97.0,13.4,1505.4,324.9,-0.8,1.8,2470.106,13.35,0.015,356.2
2019-06-21T07:32:30,42.805,6.029,0.0,0.004,-0.002,99.0,106.0,99.0,13.3,1505.4,324.0,-0.7,1.8,2470.084,13.35,0.004,0.0
2019-06-21T07:35:31,42.805,6.029,0.009,0.011,0.005,100.0,107.0,97.0,13.4,1505.4,326.4,-0.7,1.8,2470.081,13.35,0.014,39.3
2019-06-21T07:38:32,42.805,6.029,0.002,0.007,-0.029,99.0,106.0,97.0,13.3,1505.4,324.8,-0.7,1.8,2470.071,13.35,0.007,15.9
2019-06-21T07:41:33,42.805,6.029,-0.031,0.018,-0.028,100.0,106.0,97.0,13.3,1505.4,324.4,-0.7,1.8,2470.095,13.35,0.035,300.1
2019-06-21T07:44:34,42.805,6.029,-0.026,0.03,-0.025,99.0,108.0,97.0,13.3,1505.4,324.5,-0.7,1.9,2470.132,13.35,0.039,319.1
2019-06-21T07:47:35,42.805,6.029,-0.04,0.006,-0.078,99.0,107.0,98.0,13.3,1505.4,324.5,-0.7,1.8,2470.106,13.35,0.04,278.5
2019-06-21T07:50:36,42.805,6.029,-0.007,0.013,-0.039,102.0,107.0,97.0,13.4,1505.4,323.2,-0.7,1.8,2470.105,13.35,0.014,331.7
2019-06-21T07:53:37,42.805,6.029,-0.023,0.011,-0.016,99.0,106.0,98.0,13.3,1505.4,322.9,-0.7,1.9,2470.075,13.35,0.025,295.6
2019-06-21T07:56:38,42.805,6.029,-0.002,-0.01,-0.05,103.0,106.0,98.0,13.4,1505.4,326.7,-0.7,1.8,2470.154,13.35,0.01,191.3
2019-06-21T07:59:39,42.805,6.029,-0.024,0.01,-0.047,100.0,107.0,98.0,13.4,1505.4,328.2,-0.7,1.9,2470.115,13.35,0.026,292.6
2019-06-21T08:02:40,42.805,6.029,-0.019,0.013,-0.03,100.0,106.0,98.0,13.4,1505.4,326.8,-0.7,1.8,2470.099,13.35,0.023,304.4
2019-06-21T08:05:41,42.805,6.029,-0.02,0.009,-0.036,100.0,108.0,98.0,13.4,1505.4,324.7,-0.7,1.9,2470.111,13.35,0.021,294.2
2019-06-21T08:08:42,42.805,6.029,0.0,0.014,-0.056,98.0,107.0,98.0,13.4,1505.4,326.5,-0.7,1.8,2470.065,13.35,0.014,0.0
2019-06-21T08:11:43,42.805,6.029,0.007,0.014,-0.021,101.0,108.0,97.0,13.3,1505.4,323.8,-0.7,1.8,2470.13,13.35,0.015,26.6
2019-06-21T08:14:44,42.805,6.029,-0.022,0.016,-0.03,100.0,105.0,98.0,13.3,1505.4,326.7,-0.8,1.8,2470.115,13.35,0.027,306.0
2019-06-21T08:17:45,42.805,6.029,-0.022,0.013,-0.052,99.0,106.0,97.0,13.3,1505.4,324.5,-0.7,1.8,2470.131,13.35,0.025,300.6
2019-06-21T08:20:46,42.805,6.029,-0.006,0.004,-0.017,99.0,105.0,97.0,13.4,1505.4,324.7,-0.7,1.8,2470.102,13.35,0.007,303.7
2019-06-21T08:23:47,42.805,6.029,-0.022,0.013,-0.017,99.0,106.0,97.0,13.4,1505.4,328.1,-0.7,1.9,2470.165,13.35,0.025,300.6
2019-06-21T08:26:48,42.805,6.029,-0.036,0.012,-0.011,100.0,108.0,97.0,13.4,1505.4,328.4,-0.7,1.9,2470.16,13.35,0.037,288.4
2019-06-21T08:29:49,42.805,6.029,-0.023,0.012,-0.011,100.0,108.0,98.0,13.4,1505.4,323.3,-0.8,1.8,2470.17,13.35,0.025,297.6
2019-06-21T08:32:50,42.805,6.029,-0.032,0.004,-0.043,100.0,106.0,97.0,13.3,1505.4,326.5,-0.7,1.9,2470.132,13.35,0.032,277.1
2019-06-21T08:35:51,42.805,6.029,0.0,0.01,-0.009,100.0,107.0,99.0,13.4,1505.4,325.5,-0.7,1.9,2470.171,13.35,0.01,0.0
2019-06-21T08:38:52,42.805,6.029,-0.027,0.012,-0.036,100.0,107.0,98.0,13.4,1505.4,327.3,-0.7,1.8,2470.143,13.35,0.029,294.0
2019-06-21T08:41:53,42.805,6.029,-0.047,0.028,-0.028,99.0,108.0,97.0,13.4,1505.4,324.0,-0.7,1.8,2470.18,13.35,0.054,300.8
2019-06-21T08:44:54,42.805,6.029,-0.027,0.014,-0.035,99.0,108.0,98.0,13.3,1505.4,326.2,-0.7,1.8,2470.146,13.35,0.03,297.4
2019-06-21T08:47:55,42.805,6.029,-0.041,-0.005,-0.048,100.0,107.0,98.0,13.4,1505.4,325.8,-0.7,1.9,2470.103,13.35,0.041,263.0
2019-06-21T08:50:56,42.805,6.029,-0.037,0.003,-0.069,100.0,106.0,96.0,13.3,1505.4,323.9,-0.7,1.8,2470.134,13.35,0.037,274.6
2019-06-21T08:53:57,42.805,6.029,-0.044,0.014,-0.047,99.0,107.0,97.0,13.4,1505.4,326.3,-0.7,1.8,2470.139,13.35,0.046,287.6
2019-06-21T08:56:58,42.805,6.029,-0.037,0.017,-0.092,99.0,106.0,96.0,13.4,1505.4,325.5,-0.7,1.8,2470.124,13.35,0.04,294.7
2019-06-21T08:59:59,42.805,6.029,-0.059,0.008,-0.085,100.0,104.0,96.0,13.4,1505.4,327.3,-0.7,1.9,2470.053,13.35,0.059,277.7
2019-06-21T09:03:00,42.805,6.029,-0.019,0.029,-0.015,98.0,105.0,97.0,13.4,1505.4,324.8,-0.7,1.8,2470.092,13.35,0.034,326.8
2019-06-21T09:06:01,42.805,6.029,-0.066,-0.004,-0.084,99.0,106.0,97.0,13.4,1505.4,326.1,-0.8,1.8,2470.147,13.35,0.066,266.5
2019-06-21T09:09:02,42.805,6.029,-0.038,-0.001,-0.036,100.0,105.0,96.0,13.4,1505.4,325.1,-0.7,1.8,2470.139,13.35,0.038,268.5
2019-06-21T09:12:03,42.805,6.029,-0.05,0.019,-0.092,98.0,106.0,96.0,13.3,1505.4,327.7,-0.7,1.9,2470.119,13.35,0.053,290.8
2019-06-21T09:15:04,42.805,6.029,-0.048,0.008,-0.087,98.0,106.0,97.0,13.4,1505.4,326.8,-0.8,1.8,2470.133,13.35,0.048,279.5
2019-06-21T09:18:05,42.805,6.029,-0.033,0.007,-0.091,100.0,106.0,95.0,13.3,1505.4,324.9,-0.8,1.9,2470.113,13.35,0.033,282.0
2019-06-21T09:21:06,42.805,6.029,-0.064,0.01,-0.061,100.0,106.0,97.0,13.3,1505.4,325.2,-0.8,1.8,2470.105,13.35,0.064,278.9
2019-06-21T09:24:07,42.805,6.029,-0.039,0.024,-0.036,97.0,106.0,100.0,13.4,1505.4,327.9,-0.7,1.8,2470.128,13.35,0.045,301.6
2019-06-21T09:27:08,42.805,6.029,-0.076,-0.003,-0.099,100.0,106.0,96.0,13.3,1505.4,323.8,-0.7,1.8,2470.145,13.35,0.076,267.7
2019-06-21T09:30:09,42.805,6.029,-0.036,-0.001,-0.08,97.0,106.0,100.0,13.4,1505.4,324.5,-0.7,1.9,2470.125,13.35,0.036,268.4
2019-06-21T09:33:10,42.805,6.029,-0.022,0.021,-0.046,100.0,105.0,97.0,13.4,1505.4,326.6,-0.7,1.8,2470.094,13.35,0.03,313.7
2019-06-21T09:36:11,42.805,6.029,-0.06,0.025,-0.054,100.0,107.0,97.0,13.3,1505.4,325.7,-0.8,1.8,2470.143,13.35,0.064,292.6
2019-06-21T09:39:12,42.805,6.029,-0.04,0.038,-0.025,101.0,106.0,95.0,13.4,1505.4,324.0,-0.7,1.9,2470.075,13.35,0.055,313.5
2019-06-21T09:42:13,42.805,6.029,-0.019,0.016,-0.053,100.0,107.0,97.0,13.4,1505.4,326.7,-0.7,1.9,2470.138,13.35,0.024,310.1
2019-06-21T09:45:14,42.805,6.029,-0.043,0.008,-0.033,100.0,108.0,97.0,13.4,1505.4,327.6,-0.7,1.8,2470.12,13.35,0.043,280.5